Regional Weather Roundup
Issued by NWS

Home | Current Version | Previous Version | Text Only | Print | Product List | Glossary On
Versions: 1 2 3 4 5 6 7 8 9 10 11 12 13 14 15 16 17 18 19 20 21 22 23 24 25 26 27 28 29 30 31 32 33 34 35 36 37 38 39 40 41 42 43 44 45 46 47 48 49 50
000
ASUS43 KMKX 251511
RWRWI

WISCONSIN REGIONAL WEATHER ROUNDUP
NATIONAL WEATHER SERVICE MILWAUKEE/SULLIVAN WI
1000 AM CDT TUE APR 25 2017

NOTE: "FAIR" INDICATES FEW OR NO CLOUDS BELOW 12,000 FEET WITH NO
SIGNIFICANT WEATHER AND/OR OBSTRUCTIONS TO VISIBILITY.

WIZ001-002-006>008-014>016-023>028-251600-
NORTHWEST WISCONSIN

CITY           SKY/WX    TMP DP  RH WIND       PRES   REMARKS
SUPERIOR ARPT  MOSUNNY   44  40  83 E15       29.60S
ASHLAND        CLOUDY    50  40  68 N5        29.58F
HAYWARD        CLOUDY    61  35  37 CALM      29.55S
SIREN          LGT RAIN  51  45  80 CALM      29.53S
CUMBERLAND     CLOUDY    59  36  41 SE7       29.54S
RICE LAKE      MOSUNNY   63  34  33 SE8       29.56R
CHETEK         MOSUNNY   64  38  39 SE7       29.55S
LADYSMITH      MOSUNNY   64  37  36 SE12      29.58F
EAU CLAIRE     PTSUNNY   65  36  34 SE10      29.55R
MENOMONIE      CLOUDY    66  36  32 S8        29.54S
NEW RICHMOND   CLOUDY    64  36  35 S9        29.53R
OSCEOLA        CLOUDY    64  42  43 S9        29.55R
$$

WIZ003>005-009-010-017-018-251600-
NORTH CENTRAL WISCONSIN

CITY           SKY/WX    TMP DP  RH WIND       PRES   REMARKS
MANITOWISH WTR CLOUDY    59  36  43 SE9       29.60S
ARBOR VITAE    CLOUDY    62  37  39 SE9       29.60F
WOODRUFF       CLOUDY    62  37  39 SE9       29.60F
RHINELANDER    CLOUDY    63  37  38 S9        29.62F
EAGLE RIVER    PTSUNNY   61  34  36 SE10      29.62F
LAND O LAKES   PTSUNNY   57  36  44 SE7       29.64F
PHILLIPS       CLOUDY    62  37  40 S12G17    29.58S
TOMAHAWK       MOSUNNY   62  38  41 S3        29.61F
MEDFORD        SUNNY     60  39  47 SE9       29.59F
MERRILL        PTSUNNY   60  39  45 SE10      29.61F
$$

WIZ029-030-035-036-043>047-251600-
CENTRAL WISCONSIN

CITY           SKY/WX    TMP DP  RH WIND       PRES   REMARKS
WAUSAU         SUNNY     63  40  42 SE12      29.60F
MOSINEE        MOSUNNY   61  39  44 SE12      29.62F
MARSHFIELD     SUNNY     64  39  39 S12       29.59S
STEVENS POINT  SUNNY     63  40  43 SE8       29.63S
WAUPACA        SUNNY     67  45  43 SE12      29.64S
WAUTOMA        SUNNY     66  44  45 S9        29.63F
WISC RAPIDS    NOT AVBL
CAMP DOUGLAS   MOSUNNY   66  41  39 SE9       29.60R
$$

WIZ011>013-019>022-031-037>040-048>050-251600-
NORTHEAST WISCONSIN

CITY           SKY/WX    TMP DP  RH WIND       PRES   REMARKS
ANTIGO         SUNNY     59  41  51 SE12      29.64F
SHAWANO        SUNNY     63  45  51 SE8       29.66F
OCONTO         MOSUNNY   58  46  64 S10G16    29.68F
STURGEON BAY   SUNNY     56  46  69 S17G30    29.71S
GREEN BAY      SUNNY     61  50  67 S15       29.68F
MANITOWOC      SUNNY     53  45  74 S21G29    29.71F
APPLETON       NOT AVBL
CLINTONVILLE   SUNNY     63  43  48 SE10      29.64F
OSHKOSH        SUNNY     63  46  54 SE15      29.64F
$$

WIZ032>034-041-042-053>061-251600-
SOUTHWEST WISCONSIN

CITY           SKY/WX    TMP DP  RH WIND       PRES   REMARKS
LA CROSSE      MOSUNNY   67  39  35 S10       29.56F
SPARTA         SUNNY     66  38  36 SE8       29.59F
VIROQUA        MOSUNNY   64  37  35 S10       29.60S
BOSCOBEL       MOSUNNY   67  40  37 S7        29.60S
PRAIRIE DU CHI CLOUDY    64  37  36 S7        29.58F
PLATTEVILLE    PTSUNNY   64  42  44 S12       29.62F
$$

WIZ056-057-062-063-064-067-068-251600-
SOUTH CENTRAL WISCONSIN

CITY           SKY/WX    TMP DP  RH WIND       PRES   REMARKS
REEDSBURG      SUNNY     64  41  44 S8G17     29.61S
BARABOO/DELLS  SUNNY     64  40  40 S13       29.62S
LONE ROCK      SUNNY     65  41  41 SE9       29.61F
MINERAL POINT  SUNNY     64  41  42 S10       29.62F
MADISON        PTSUNNY   65  43  44 S15       29.63S
MIDDLETON      SUNNY     67  43  41 S13G20    29.64S
WATERTOWN      SUNNY     66  47  48 S13G18    29.66R
MONROE         SUNNY     66  41  39 S15       29.64F
JANESVILLE     PTSUNNY   70  45  40 S12G17    29.66R
$$

WIZ051-052-058>065-066-070>072-251600-
SOUTHEAST WISCONSIN

CITY           SKY/WX    TMP DP  RH WIND       PRES   REMARKS
MILWAUKEE      MOSUNNY   63  50  62 SE10      29.68F
WAUKESHA       SUNNY     63  46  55 SE9       29.68F
MILWAUKEE/TIMM SUNNY     64  45  48 SE8       29.68F
RACINE         SUNNY     57  48  72 S12       29.71F
KENOSHA        SUNNY     66  51  58 SE9       29.69F
FOND DU LAC    SUNNY     65  45  48 SE13      29.65F
SHEBOYGAN      SUNNY     55  48  77 S12       29.70F
WEST BEND      SUNNY     63  46  55 SE8       29.67F
JUNEAU         SUNNY     64  46  51 S13       29.67S
$$

LSZ147-162-251600-
LAKE SUPERIOR

STATION/POSITION TIME  TEMP    WIND        PRES    WAVE
                       AIR SEA DIR/SP/G            HT/PER
                 (UTC) (F)     (DEG/KT/KT) (MB)    (FT/S)
DEVILS ISLAND    1500   39      60/ 14/ 16 1002.6F
SAXON HARBOR     1430   44      50/  2/  5 1002.0R
$$

LMZ867-665-643>646-251600-
LAKE MICHIGAN

STATION/POSITION TIME  TEMP    WIND        PRES    WAVE
                       AIR SEA DIR/SP/G            HT/PER
                 (UTC) (F)     (DEG/KT/KT) (MB)    (FT/S)
CHAMBERS ISLAND  1440   57     150/ 10/ 15 1006.1S
N MID LAKE BUOY  1450   43 37  120/  6/  8 1008.2F   2/ 3
NORTHPORT PIER   1440   48     150/ 11/ 17 1006.8F
KEWAUNEE LAKESHO 1448   47     180/  9/ 11 1006.3F
SHEBOYGAN LAKESH 1500   45     180/  7/  8 1006.1F
PORT WASHINGTON  1440   48     150/  5/  7 1006.8F
MILWAUKEE LAKESH 1450   47     130/ 13/ 15   N/A
S MID LAKE BUOY  1350   46 41  120/ 12/ 14 1007.1F   2/ 3
KENOSHA   LAKESH 1500   49     170/ 11/ 13 1005.8
$$

TC  - TEMPERATURE IN CELSIUS
VSB - VISIBILITY IN STATUTE MILES
WCI - WIND CHILL INDEX
HX  - HEAT INDEX




USA.gov is the U.S. government's official web portal to all federal, state and local government web resources and services.